| time (UTC) | temp C | wind direction | speed KPH | gust KPH | rain 1hr cm | rain 24hr cm | rain mn cm | humidity % | barometer mb |
| 20260507160003 | 11 | 355 | 1.6 | 8.0 | 0.00 | 0.13 | 0.13 | 87 | 1019.1 |
| 20260507154503 | 11 | 309 | 0.0 | 9.7 | 0.00 | 0.13 | 0.13 | 88 | 1019.2 |
| 20260507153007 | 10 | 348 | 0.0 | 6.4 | 0.00 | 0.13 | 0.13 | 89 | 1019.2 |
| 20260507151502 | 10 | 300 | 0.0 | 3.2 | 0.00 | 0.13 | 0.13 | 89 | 1019.1 |
| 20260507150101 | 10 | 1 | 0.0 | 4.8 | 0.00 | 0.13 | 0.13 | 89 | 1019.2 |
| 20260507144606 | 10 | 330 | 0.0 | 1.6 | 0.00 | 0.13 | 0.13 | 90 | 1019.2 |
| 20260507143110 | 10 | 7 | 0.0 | 1.6 | 0.00 | 0.13 | 0.13 | 90 | 1019.1 |
| 20260507141620 | 10 | 281 | 0.0 | 1.6 | 0.00 | 0.13 | 0.13 | 91 | 1019.0 |
| 20260507140110 | 10 | 291 | 0.0 | 3.2 | 0.00 | 0.13 | 0.13 | 91 | 1019.0 |
| 20260507134608 | 10 | 296 | 1.6 | 4.8 | 0.03 | 0.13 | 0.13 | 91 | 1019.1 |
| 20260507133056 | 10 | 349 | 1.6 | 6.4 | 0.05 | 0.13 | 0.13 | 91 | 1019.0 |
| 20260507131557 | 10 | 298 | 1.6 | 6.4 | 0.08 | 0.13 | 0.13 | 91 | 1018.9 |
| 20260507130055 | 10 | 300 | 0.0 | 8.0 | 0.13 | 0.13 | 0.13 | 91 | 1019.0 |
| 20260507124553 | 10 | 306 | 1.6 | 6.4 | 0.10 | 0.10 | 0.10 | 91 | 1018.9 |
| 20260507123052 | 10 | 302 | 0.0 | 1.6 | 0.08 | 0.08 | 0.08 | 91 | 1018.9 |
| 20260507121550 | 10 | 231 | 0.0 | 1.6 | 0.05 | 0.05 | 0.05 | 91 | 1019.0 |
| 20260507120049 | 10 | 293 | 0.0 | 1.6 | 0.00 | 0.00 | 0.00 | 91 | 1019.1 |
| 20260507114553 | 10 | 316 | 0.0 | 3.2 | 0.00 | 0.00 | 0.00 | 91 | 1019.1 |
| 20260507113047 | 11 | 338 | 0.0 | 1.6 | 0.00 | 0.00 | 0.00 | 91 | 1019.2 |
| 20260507111555 | 11 | 18 | 0.0 | 4.8 | 0.00 | 0.00 | 0.00 | 91 | 1019.3 |
| 20260507110043 | 11 | 37 | 0.0 | 3.2 | 0.00 | 0.00 | 0.00 | 91 | 1019.3 |
| 20260507104541 | 11 | 345 | 0.0 | 3.2 | 0.00 | 0.00 | 0.00 | 91 | 1019.3 |
| 20260507103039 | 11 | 9 | 0.0 | 1.6 | 0.00 | 0.00 | 0.00 | 90 | 1019.3 |
| 20260507101543 | 11 | 25 | 0.0 | 0.0 | 0.00 | 0.00 | 0.00 | 90 | 1019.2 |
| 20260507100040 | 11 | 35 | 1.6 | 3.2 | 0.00 | 0.00 | 0.00 | 90 | 1019.3 |
| 20260507094541 | 11 | 45 | 1.6 | 4.8 | 0.00 | 0.00 | 0.00 | 90 | 1019.4 |
| 20260507093043 | 11 | 39 | 0.0 | 3.2 | 0.00 | 0.00 | 0.00 | 89 | 1019.4 |
| 20260507091538 | 11 | 306 | 0.0 | 1.6 | 0.00 | 0.00 | 0.00 | 89 | 1019.3 |
| 20260507090033 | 11 | 2 | 0.0 | 3.2 | 0.00 | 0.00 | 0.00 | 89 | 1019.3 |
| 20260507084533 | 11 | 344 | 0.0 | 1.6 | 0.00 | 0.00 | 0.00 | 88 | 1019.3 |
| 20260507083033 | 12 | 54 | 0.0 | 6.4 | 0.00 | 0.00 | 0.00 | 88 | 1019.3 |
| 20260507081536 | 12 | 2 | 4.8 | 9.7 | 0.00 | 0.00 | 0.00 | 87 | 1019.3 |
| 20260507080029 | 12 | 37 | 3.2 | 8.0 | 0.00 | 0.00 | 0.00 | 86 | 1019.2 |
| 20260507074526 | 12 | 332 | 0.0 | 8.0 | 0.00 | 0.00 | 0.00 | 85 | 1019.2 |
| 20260507073025 | 12 | 30 | 0.0 | 0.0 | 0.00 | 0.00 | 0.00 | 84 | 1019.2 |
| 20260507071527 | 12 | 38 | 1.6 | 4.8 | 0.00 | 0.00 | 0.00 | 84 | 1019.1 |
| 20260507070022 | 12 | 18 | 0.0 | 1.6 | 0.00 | 0.00 | 0.00 | 84 | 1019.0 |
| 20260507064520 | 12 | 319 | 0.0 | 0.0 | 0.00 | 0.00 | 0.00 | 83 | 1018.9 |
| 20260507063019 | 12 | 319 | 0.0 | 0.0 | 0.00 | 0.00 | 0.00 | 83 | 1018.9 |
| 20260507061520 | 12 | 319 | 0.0 | 0.0 | 0.00 | 0.00 | 0.00 | 83 | 1018.9 |
| 20260507060024 | 12 | 349 | 0.0 | 1.6 | 0.00 | 0.00 | 0.00 | 83 | 1019.0 |
| 20260507054518 | 12 | 346 | 0.0 | 3.2 | 0.00 | 0.00 | 0.00 | 83 | 1019.0 |
| 20260507053020 | 12 | 346 | 1.6 | 4.8 | 0.00 | 0.00 | 0.00 | 84 | 1019.1 |
| 20260507051517 | 12 | 307 | 0.0 | 3.2 | 0.00 | 0.00 | 0.00 | 85 | 1019.2 |
| 20260507050016 | 12 | 285 | 0.0 | 0.0 | 0.00 | 0.00 | 0.00 | 86 | 1019.2 |
| 20260507044516 | 12 | 295 | 0.0 | 0.0 | 0.00 | 0.00 | 0.00 | 86 | 1019.2 |
| 20260507043015 | 12 | 295 | 0.0 | 3.2 | 0.00 | 0.00 | 0.00 | 86 | 1019.2 |
| 20260507041531 | 12 | 335 | 0.0 | 1.6 | 0.00 | 0.00 | 0.00 | 85 | 1019.1 |
| 20260507040013 | 12 | 306 | 0.0 | 3.2 | 0.00 | 0.00 | 0.00 | 85 | 1019.1 |
| 20260507034514 | 12 | 274 | 0.0 | 4.8 | 0.00 | 0.00 | 0.00 | 85 | 1018.9 |
| 20260507033013 | 13 | 254 | 0.0 | 1.6 | 0.00 | 0.00 | 0.00 | 84 | 1018.8 |
| 20260507031513 | 13 | 263 | 0.0 | 4.8 | 0.00 | 0.00 | 0.00 | 83 | 1018.7 |
| 20260507030010 | 13 | 282 | 0.0 | 6.4 | 0.00 | 0.00 | 0.00 | 83 | 1018.7 |
| 20260507024509 | 13 | 306 | 0.0 | 4.8 | 0.00 | 0.00 | 0.00 | 83 | 1018.7 |
| 20260507023009 | 13 | 266 | 0.0 | 6.4 | 0.00 | 0.00 | 0.00 | 83 | 1018.7 |
| 20260507021508 | 13 | 255 | 0.0 | 6.4 | 0.00 | 0.00 | 0.00 | 83 | 1018.6 |
| 20260507020008 | 13 | 300 | 0.0 | 6.4 | 0.00 | 0.00 | 0.00 | 82 | 1018.7 |
| 20260507014516 | 13 | 299 | 0.0 | 9.7 | 0.00 | 0.00 | 0.00 | 82 | 1018.5 |
| 20260507013022 | 13 | 272 | 3.2 | 9.7 | 0.00 | 0.00 | 0.00 | 81 | 1018.5 |
| 20260507011505 | 13 | 234 | 1.6 | 9.7 | 0.00 | 0.00 | 0.00 | 81 | 1018.5 |
| 20260507010005 | 13 | 238 | 3.2 | 12.9 | 0.00 | 0.00 | 0.00 | 80 | 1018.6 |
| 20260507004504 | 13 | 304 | 0.0 | 8.0 | 0.00 | 0.00 | 0.00 | 80 | 1018.6 |
| 20260507003003 | 13 | 222 | 1.6 | 11.3 | 0.00 | 0.00 | 0.00 | 80 | 1018.7 |
| 20260507001504 | 13 | 227 | 3.2 | 12.9 | 0.00 | 0.00 | 0.00 | 80 | 1018.6 |
| 20260507000007 | 13 | 245 | 1.6 | 9.7 | 0.00 | 0.00 | 0.00 | 78 | 1018.6 |
| 20260506234502 | 13 | 254 | 0.0 | 12.9 | 0.00 | 0.00 | 0.00 | 78 | 1018.6 |
| 20260506233001 | 13 | 262 | 6.4 | 11.3 | 0.00 | 0.00 | 0.00 | 77 | 1018.6 |
| 20260506231600 | 14 | 231 | 0.0 | 8.0 | 0.00 | 0.00 | 0.00 | 76 | 1018.7 |
| 20260506224601 | 13 | 245 | 1.6 | 9.7 | 0.00 | 0.00 | 0.00 | 75 | 1018.7 |
| 20260506223125 | 13 | 261 | 1.6 | 6.4 | 0.00 | 0.00 | 0.00 | 76 | 1018.7 |
| 20260506221603 | 13 | 240 | 0.0 | 4.8 | 0.00 | 0.00 | 0.00 | 76 | 1018.8 |
| 20260506220057 | 14 | 223 | 1.6 | 4.8 | 0.00 | 0.00 | 0.00 | 76 | 1018.9 |
| 20260506214608 | 14 | 217 | 3.2 | 12.9 | 0.00 | 0.00 | 0.00 | 74 | 1018.9 |
| 20260506213055 | 14 | 152 | 3.2 | 9.7 | 0.00 | 0.00 | 0.00 | 76 | 1018.9 |
| 20260506211556 | 14 | 191 | 1.6 | 12.9 | 0.00 | 0.00 | 0.00 | 76 | 1018.9 |
| 20260506210053 | 15 | 222 | 6.4 | 16.1 | 0.00 | 0.00 | 0.00 | 74 | 1019.0 |
| 20260506204551 | 15 | 172 | 9.7 | 17.7 | 0.00 | 0.00 | 0.00 | 72 | 1018.8 |
| 20260506203049 | 15 | 175 | 3.2 | 12.9 | 0.00 | 0.00 | 0.00 | 73 | 1018.8 |
| 20260506201546 | 15 | 205 | 3.2 | 16.1 | 0.00 | 0.00 | 0.00 | 75 | 1018.7 |
| 20260506200117 | 15 | 229 | 4.8 | 12.9 | 0.00 | 0.00 | 0.00 | 78 | 1018.8 |
| 20260506194541 | 14 | 259 | 0.0 | 16.1 | 0.00 | 0.00 | 0.00 | 80 | 1018.7 |
| 20260506193042 | 14 | 158 | 4.8 | 14.5 | 0.00 | 0.00 | 0.00 | 80 | 1018.6 |
| 20260506191538 | 14 | 200 | 3.2 | 12.9 | 0.00 | 0.00 | 0.00 | 80 | 1018.6 |
| 20260506190038 | 13 | 234 | 3.2 | 9.7 | 0.00 | 0.00 | 0.00 | 81 | 1018.6 |
| 20260506184536 | 13 | 216 | 3.2 | 11.3 | 0.00 | 0.00 | 0.00 | 82 | 1018.5 |
| 20260506183035 | 13 | 148 | 3.2 | 14.5 | 0.00 | 0.00 | 0.00 | 82 | 1018.4 |
| 20260506181537 | 13 | 149 | 4.8 | 11.3 | 0.00 | 0.00 | 0.00 | 81 | 1018.3 |
| 20260506180043 | 13 | 147 | 1.6 | 9.7 | 0.00 | 0.00 | 0.00 | 82 | 1018.3 |
| 20260506174532 | 14 | 172 | 1.6 | 8.0 | 0.00 | 0.00 | 0.00 | 82 | 1018.3 |
| 20260506173028 | 13 | 181 | 6.4 | 9.7 | 0.00 | 0.00 | 0.00 | 83 | 1017.8 |
| 20260506171543 | 13 | 160 | 0.0 | 4.8 | 0.00 | 0.00 | 0.00 | 87 | 1018.1 |
| 20260506170026 | 12 | 264 | 3.2 | 9.7 | 0.00 | 0.00 | 0.00 | 87 | 1018.2 |
| 20260506164525 | 12 | 266 | 3.2 | 8.0 | 0.00 | 0.00 | 0.00 | 88 | 1018.1 |
| 20260506163028 | 13 | 287 | 3.2 | 6.4 | 0.00 | 0.00 | 0.00 | 86 | 1018.2 |
| 20260506161535 | 13 | 91 | 0.0 | 1.6 | 0.00 | 0.00 | 0.00 | 88 | 1017.9 |